EZY32KB LIMC-EGKK

Flight info

Callsign EZY32KB
Flight time N/A
Altitude 36000
Route AOSTA DCT ORSUD DCT MOLUS DCT IBODI DCT GOTED DCT TRO DCT CLM DCT KOPOR DCT KESAX DCT KUNAV
Aircraft A319/M-SDE3FGHIRWY/LB1

Departure

Time 2026-05-07 08:34
Airport Milan Malpensa International Airport (LIMC)

Arrival

Time N/A
Airport London Gatwick Airport (EGKK)
Time Latitude Longitude Altitude Speed Heading
2026-05-07 08:05 45.64603 8.72508 741 ft 0 kts 259°
2026-05-07 08:24 45.64607 8.72534 741 ft 3 kts 259°
2026-05-07 08:24 45.64611 8.72563 741 ft 3 kts 259°
2026-05-07 08:24 45.64614 8.72589 739 ft 3 kts 247°
2026-05-07 08:25 45.64626 8.72609 739 ft 3 kts 192°
2026-05-07 08:25 45.64645 8.72609 741 ft 3 kts 169°
2026-05-07 08:25 45.64655 8.72607 741 ft 0 kts 169°
2026-05-07 08:27 45.64649 8.72608 741 ft 3 kts 169°
2026-05-07 08:28 45.64601 8.72620 739 ft 11 kts 169°
2026-05-07 08:28 45.64515 8.72637 741 ft 13 kts 189°
2026-05-07 08:28 45.64470 8.72546 741 ft 12 kts 252°
2026-05-07 08:28 45.64438 8.72438 741 ft 12 kts 210°
2026-05-07 08:29 45.64352 8.72446 741 ft 14 kts 168°
2026-05-07 08:29 45.64238 8.72479 741 ft 19 kts 168°
2026-05-07 08:29 45.64106 8.72517 741 ft 20 kts 168°
2026-05-07 08:29 45.63961 8.72562 741 ft 22 kts 169°
2026-05-07 08:30 45.63800 8.72605 740 ft 26 kts 167°
2026-05-07 08:30 45.63605 8.72659 741 ft 31 kts 168°
2026-05-07 08:30 45.63387 8.72721 741 ft 32 kts 169°
2026-05-07 08:30 45.63168 8.72783 741 ft 32 kts 169°
2026-05-07 08:31 45.62949 8.72844 740 ft 32 kts 169°
2026-05-07 08:31 45.62729 8.72903 741 ft 32 kts 169°
2026-05-07 08:31 45.62511 8.72963 741 ft 32 kts 168°
2026-05-07 08:31 45.62293 8.73026 742 ft 32 kts 169°
2026-05-07 08:32 45.62075 8.73084 742 ft 32 kts 169°
2026-05-07 08:32 45.61858 8.73144 740 ft 32 kts 169°
2026-05-07 08:32 45.61690 8.73309 742 ft 30 kts 125°
2026-05-07 08:32 45.61590 8.73555 742 ft 24 kts 103°
2026-05-07 08:33 45.61658 8.73726 742 ft 23 kts
2026-05-07 08:33 45.61835 8.73682 742 ft 43 kts 348°
2026-05-07 08:33 45.62157 8.73593 741 ft 97 kts 348°
2026-05-07 08:33 45.63050 8.73346 743 ft 161 kts 349°
2026-05-07 08:34 45.64202 8.73034 1322 ft 168 kts 349°
2026-05-07 08:34 45.65344 8.72709 2139 ft 168 kts 348°
2026-05-07 08:34 45.66550 8.72550 2687 ft 186 kts
2026-05-07 08:34 45.67926 8.72572 3164 ft 210 kts
2026-05-07 08:35 45.69454 8.72586 3829 ft 227 kts
2026-05-07 08:35 45.71052 8.72585 4791 ft 231 kts 358°
2026-05-07 08:35 45.72590 8.71906 5691 ft 238 kts 323°
2026-05-07 08:35 45.73521 8.69969 6639 ft 243 kts 284°
2026-05-07 08:36 45.73423 8.67575 7584 ft 246 kts 250°
2026-05-07 08:36 45.72807 8.65283 8621 ft 247 kts 249°
2026-05-07 08:36 45.72203 8.62975 9639 ft 249 kts 250°
2026-05-07 08:36 45.71591 8.60642 10573 ft 252 kts 246°
2026-05-07 08:37 45.70704 8.58382 11157 ft 272 kts 238°
2026-05-07 08:37 45.69657 8.55989 11564 ft 296 kts 238°
2026-05-07 08:37 45.68512 8.53398 11982 ft 318 kts 238°
2026-05-07 08:37 45.67310 8.50685 12747 ft 326 kts 238°
2026-05-07 08:38 45.66080 8.47934 13632 ft 330 kts 238°
2026-05-07 08:38 45.64834 8.45152 14455 ft 333 kts 238°
2026-05-07 08:38 45.63580 8.42349 15252 ft 336 kts 238°
2026-05-07 08:38 45.62237 8.39642 16029 ft 341 kts 231°
2026-05-07 08:39 45.60719 8.37027 16812 ft 343 kts 234°
2026-05-07 08:39 45.59517 8.34081 17579 ft 345 kts 248°
2026-05-07 08:39 45.58850 8.30786 18341 ft 347 kts 262°
2026-05-07 08:39 45.58758 8.27340 19022 ft 350 kts 275°
2026-05-07 08:40 45.59248 8.23932 19720 ft 353 kts 287°
2026-05-07 08:40 45.59993 8.20580 20421 ft 356 kts 288°
2026-05-07 08:40 45.60778 8.17209 21116 ft 359 kts 288°
2026-05-07 08:40 45.61583 8.13819 21797 ft 362 kts 288°
2026-05-07 08:41 45.62405 8.10347 22485 ft 366 kts 288°
2026-05-07 08:41 45.63208 8.06932 23133 ft 369 kts 288°
2026-05-07 08:41 45.64025 8.03435 23744 ft 373 kts 288°
2026-05-07 08:41 45.64844 7.99899 24306 ft 376 kts 288°
2026-05-07 08:42 45.65665 7.96327 24862 ft 379 kts 288°
2026-05-07 08:42 45.66487 7.92731 25408 ft 381 kts 288°
2026-05-07 08:42 45.67314 7.89110 25929 ft 384 kts 288°
2026-05-07 08:42 45.68146 7.85457 26465 ft 388 kts 288°
2026-05-07 08:43 45.68984 7.81772 27002 ft 391 kts 288°
2026-05-07 08:43 45.69829 7.78064 27512 ft 394 kts 288°
2026-05-07 08:43 45.70681 7.74332 28021 ft 397 kts 287°
2026-05-07 08:43 45.71538 7.70567 28540 ft 399 kts 287°
2026-05-07 08:44 45.72399 7.66770 29033 ft 403 kts 287°
2026-05-07 08:44 45.73263 7.62949 29513 ft 405 kts 287°
2026-05-07 08:44 45.74134 7.59097 29982 ft 408 kts 287°
2026-05-07 08:44 45.75011 7.55219 30390 ft 411 kts 287°
2026-05-07 08:45 45.75892 7.51316 30779 ft 413 kts 287°
2026-05-07 08:45 45.76776 7.47384 31163 ft 416 kts 287°
2026-05-07 08:45 45.77662 7.43436 31549 ft 418 kts 287°
2026-05-07 08:45 45.78656 7.39519 31958 ft 419 kts 293°
2026-05-07 08:46 45.80091 7.35881 32480 ft 419 kts 303°
2026-05-07 08:46 45.81951 7.32657 33017 ft 421 kts 312°
2026-05-07 08:46 45.84192 7.29942 33529 ft 423 kts 321°
2026-05-07 08:46 45.86603 7.27511 34002 ft 423 kts 321°
2026-05-07 08:47 45.89003 7.25087 34393 ft 422 kts 321°
2026-05-07 08:47 45.91401 7.22656 34787 ft 422 kts 321°
2026-05-07 08:47 45.93799 7.20210 35143 ft 422 kts 321°
2026-05-07 08:47 45.96193 7.17759 35455 ft 423 kts 321°
2026-05-07 08:48 45.98589 7.15302 35780 ft 424 kts 321°
2026-05-07 08:48 46.00996 7.12834 35997 ft 425 kts 321°
2026-05-07 08:48 46.05727 7.07980 36044 ft 416 kts 321°
2026-05-07 08:49 46.10436 7.03148 36047 ft 415 kts 321°
2026-05-07 08:49 46.15131 6.98318 36045 ft 415 kts 321°
2026-05-07 08:50 46.19829 6.93475 36040 ft 415 kts 321°
2026-05-07 08:50 46.24516 6.88619 36026 ft 414 kts 321°
2026-05-07 08:51 46.29207 6.83761 36019 ft 415 kts 321°
2026-05-07 08:51 46.33890 6.78905 36016 ft 414 kts 321°
2026-05-07 08:52 46.38576 6.74023 36010 ft 414 kts 321°
2026-05-07 08:52 46.43250 6.69128 36009 ft 414 kts 320°
2026-05-07 08:53 46.47401 6.63427 36010 ft 411 kts 311°
2026-05-07 08:53 46.51363 6.57437 36012 ft 411 kts 311°
2026-05-07 08:54 46.55316 6.51429 36014 ft 411 kts 311°
2026-05-07 08:54 46.59273 6.45416 36014 ft 411 kts 311°
2026-05-07 08:55 46.63235 6.39393 36021 ft 411 kts 311°
2026-05-07 08:55 46.67192 6.33365 36021 ft 412 kts 311°
2026-05-07 08:56 46.71092 6.27416 36023 ft 411 kts 311°
2026-05-07 08:56 46.75058 6.21340 36020 ft 411 kts 311°
2026-05-07 08:57 46.79000 6.15284 36025 ft 411 kts 311°
2026-05-07 08:57 46.82941 6.09225 36024 ft 411 kts 311°
2026-05-07 08:58 46.86870 6.03154 36033 ft 411 kts 311°
2026-05-07 08:58 46.90805 5.97068 36026 ft 412 kts 311°
2026-05-07 08:59 46.94791 5.91128 36031 ft 413 kts 318°
2026-05-07 08:59 46.99695 5.86678 36032 ft 417 kts 330°
2026-05-07 09:00 47.04839 5.82728 36042 ft 417 kts 330°
2026-05-07 09:00 47.09985 5.78770 36037 ft 418 kts 330°
2026-05-07 09:01 47.15135 5.74795 36042 ft 418 kts 330°
2026-05-07 09:01 47.20292 5.70807 36038 ft 418 kts 330°
2026-05-07 09:02 47.25442 5.66824 36039 ft 418 kts 330°
2026-05-07 09:02 47.30595 5.62827 36048 ft 419 kts 330°
2026-05-07 09:03 47.35757 5.58818 36044 ft 419 kts 330°
2026-05-07 09:03 47.40910 5.54790 36045 ft 419 kts 330°
2026-05-07 09:04 47.46056 5.50748 36047 ft 419 kts 330°
2026-05-07 09:04 47.51119 5.46500 36050 ft 417 kts 321°
2026-05-07 09:05 47.55113 5.40477 36052 ft 412 kts 304°
2026-05-07 09:05 47.58502 5.33630 36039 ft 412 kts 305°
2026-05-07 09:06 47.61918 5.26780 36048 ft 413 kts 305°
2026-05-07 09:06 47.65326 5.19926 36038 ft 413 kts 305°
2026-05-07 09:07 47.68728 5.13052 36048 ft 413 kts 305°
2026-05-07 09:07 47.72118 5.06157 36051 ft 413 kts 305°
2026-05-07 09:08 47.75503 4.99258 36055 ft 413 kts 305°
2026-05-07 09:08 47.78894 4.92349 36055 ft 414 kts 305°
2026-05-07 09:09 47.82283 4.85429 36049 ft 413 kts 305°
2026-05-07 09:09 47.85661 4.78502 36056 ft 413 kts 305°
2026-05-07 09:10 47.89037 4.71576 36057 ft 413 kts 305°
2026-05-07 09:10 47.91847 4.65805 36055 ft 413 kts 305°
2026-05-07 09:11 47.95208 4.58862 36057 ft 413 kts 304°